User: anonymous   Login
Location: Bowman Observatory
(41.0326°N, 73.6210°W)
Time: 12:47:33
(UTC-04:00)
Language:

Cosmos 2297 - Orbit

View from above orbital plane
View from above orbital plane
View from above satellite
View from above satellite

Ground track
Ground track

The orbit data is extracted from the following two-line orbital elements,

1 23404U 94077A   18140.91338434 +.00000272 +00000-0 +16950-3 0  9994
2 23404 071.0149 305.9954 0016002 349.6163 010.4626 14.13514787211759
Epoch (UTC): 20 May 2018 21:55:16
Eccentricity: 0.0016002
inclination: 71.0149°
perigee height: 836 km
apogee height: 859 km
right ascension of ascending node: 305.9954°
argument of perigee: 349.6163°
revolutions per day: 14.13514787
mean anomaly at epoch: 10.4626°
orbit number at epoch: 21175

The dashed part of the orbit path shows where the satellite is in the earth's shadow,  

DLR